QPF
0.00 0.00 0.00 0.00 0.00 0.00 0.00 0.00 0.00 0.00 0.00 0.00 0.00 0.00 0.00 0.00 0.00 0.00 0.00 0.00 0.00 0.00 0.00 0.00 0.00 0.00 0.00 0.00 0.00 0.00 0.00 0.00 0.00 0.00 0.00 0.00 0.00 0.00 0.00 0.00 0.00 0.00 0.00 0.00 0.00
0.00 0.00 0.00 0.00 0.00 0.00 0.00 0.00 0.00 0.00 0.00 0.00 0.00 0.00 0.00 0.00 0.00 0.00 0.00 0.00 0.00 0.00 0.00 0.00 0.00 0.00 0.00 0.00 0.00 0.00 0.00 0.00 0.00 0.00 0.00 0.00 0.00 0.00 0.00 0.00 0.00 0.00 0.00 0.00 0.00
0.00 0.00 0.00 0.00 0.00 0.00 0.00 0.00 0.00 0.00 0.00 0.00 0.00 0.00 0.00 0.00 0.00 0.00 0.00 0.00 0.00 0.00 0.00 0.00 0.00 0.00 0.00 0.00 0.00 0.00 0.00 0.00 0.00 0.00 0.00 0.00 0.00 0.00 0.00 0.00 0.00 0.00 0.00 0.00 0.00
0.00 0.00 0.00 0.00 0.00 0.00 0.00 0.00 0.00 0.00 0.00 0.00 0.00 0.00 0.00 0.00 0.00 0.00 0.00 0.00 0.00 0.00 0.00 0.00 0.00 0.00 0.00 0.00 0.00 0.00 0.00 0.00 0.00 0.00 0.00 0.00 0.00 0.00 0.00 0.00 0.00 0.00 0.00 0.00 0.00
0.00 0.00 0.00 0.00 0.00 0.00 0.00 0.00 0.00 0.00 0.00 0.00 0.00 0.00 0.00 0.00 0.00 0.00 0.00 0.00 0.00 0.00 0.00 0.00 0.00 0.00 0.00 0.00 0.00 0.00 0.00 0.00 0.00 0.00 0.00 0.00 0.00 0.00 0.00 0.00 0.00 0.00 0.00 0.00 0.00
0.00 0.00 0.00 0.00 0.00 0.00 0.00 0.00 0.00 0.00 0.00 0.00 0.00 0.00 0.00 0.00 0.00 0.00 0.00 0.00 0.00 0.00 0.00 0.00 0.00 0.00 0.00 0.00 0.00 0.00 0.00 0.00 0.00 0.00 0.00 0.00 0.00 0.00 0.00 0.00 0.00 0.00 0.00 0.00 0.00
0.00 0.00 0.00 0.00 0.00 0.00 0.00 0.00 0.00 0.00 0.00 0.00 0.00 0.00 0.00 0.00 0.00 0.00 0.00 0.00 0.00 0.00 0.00 0.00 0.00 0.00 0.00 0.00 0.00 0.00 0.00 0.00 0.00 0.00 0.00 0.00 0.00 0.00 0.00 0.00 0.00 0.00 0.00 0.00 0.00
0.00 0.00 0.00 0.00 0.00 0.00 0.00 0.00 0.00 0.00 0.00 0.00 0.00 0.00 0.00 0.00 0.00 0.00 0.00 0.00 0.00 0.00 0.00 0.00 0.00 0.00 0.00 0.00 0.00 0.00 0.00 0.00 0.00 0.00 0.00 0.00 0.00 0.00 0.00 0.00 0.00 0.00 0.00 0.00 0.00
0.00 0.00 0.00 0.00 0.00 0.00 0.00 0.00 0.00 0.00 0.00 0.00 0.00 0.00 0.00 0.00 0.00 0.00 0.00 0.00 0.00 0.00 0.00 0.00 0.00 0.00 0.00 0.00 0.00 0.00 0.00 0.00 0.00 0.00 0.00 0.00 0.00 0.00 0.00 0.00 0.00 0.00 0.00 0.00 0.00
0.00 0.00 0.00 0.00 0.00 0.00 0.00 0.00 0.00 0.00 0.00 0.00 0.00 0.00 0.00 0.00 0.00 0.00 0.00 0.00 0.00 0.00 0.00 0.00 0.00 0.00 0.00 0.00 0.00 0.00 0.00 0.00 0.00 0.00 0.00 0.00 0.00 0.00 0.00 0.00 0.00 0.00 0.00 0.00 0.00
0.00 0.00 0.00 0.00 0.00 0.00 0.00 0.00 0.00 0.00 0.00 0.00 0.00 0.00 0.00 0.00 0.00 0.00 0.00 0.00 0.00 0.00 0.00 0.00 0.00 0.00 0.00 0.00 0.00 0.00 0.00 0.00 0.00 0.00 0.00 0.00 0.00 0.00 0.00 0.00 0.00 0.00 0.00 0.00 0.00
0.00 0.00 0.00 0.00 0.00 0.00 0.00 0.00 0.00 0.00 0.00 0.00 0.00 0.00 0.00 0.00 0.00 0.00 0.00 0.00 0.00 0.00 0.00 0.00 0.00 0.00 0.00 0.00 0.00 0.00 0.00 0.00 0.00 0.00 0.00 0.00 0.00 0.00 0.00 0.00 0.00 0.00 0.00 0.00 0.00
0.00 0.00 0.00 0.00 0.00 0.01 0.00 0.00 0.00 0.00 0.00 0.00 0.00 0.00 0.00 0.00 0.00 0.00 0.00 0.00 0.00 0.00 0.00 0.00 0.00 0.00 0.00 0.00 0.00 0.00 0.00 0.00 0.00 0.00 0.00 0.00 0.00 0.00 0.00 0.00 0.00 0.00 0.00 0.00 0.00
0.03 0.01 0.00 0.01 0.02 0.00 0.00 0.00 0.00 0.00 0.00 0.00 0.00 0.00 0.00 0.00 0.00 0.00 0.00 0.00 0.00 0.00 0.00 0.00 0.00 0.00 0.00 0.00 0.00 0.00 0.00 0.00 0.00 0.00 0.00 0.00 0.00 0.00 0.00 0.00 0.00 0.00 0.00 0.00 0.00
0.06 0.04 0.01 0.01 0.00 0.00 0.00 0.00 0.00 0.00 0.00 0.00 0.00 0.00 0.00 0.00 0.00 0.00 0.00 0.00 0.00 0.00 0.00 0.00 0.00 0.00 0.00 0.00 0.00 0.00 0.00 0.00 0.00 0.00 0.00 0.00 0.00 0.00 0.00 0.00 0.00 0.00 0.00 0.00 0.00
0.05 0.08 0.07 0.02 0.01 0.00 0.00 0.00 0.00 0.00 0.00 0.00 0.00 0.00 0.00 0.00 0.00 0.00 0.00 0.00 0.00 0.00 0.00 0.00 0.00 0.00 0.00 0.00 0.00 0.00 0.00 0.00 0.00 0.00 0.00 0.00 0.00 0.00 0.00 0.00 0.00 0.00 0.00 0.00 0.00
0.04 0.11 0.11 0.05 0.01 0.00 0.00 0.02 0.04 0.02 0.00 0.00 0.00 0.00 0.00 0.00 0.00 0.00 0.00 0.00 0.00 0.00 0.00 0.00 0.00 0.00 0.00 0.00 0.00 0.00 0.00 0.00 0.00 0.00 0.00 0.00 0.00 0.00 0.00 0.00 0.00 0.00 0.00 0.00 0.00
0.11 0.18 0.14 0.13 0.07 0.04 0.04 0.12 0.22 0.06 0.00 0.00 0.00 0.00 0.00 0.00 0.00 0.00 0.00 0.00 0.00 0.00 0.00 0.00 0.00 0.00 0.00 0.00 0.00 0.00 0.00 0.00 0.00 0.00 0.00 0.00 0.00 0.00 0.00 0.00 0.00 0.00 0.00 0.00 0.00
0.17 0.30 0.33 0.14 0.19 0.22 0.20 0.28 0.17 0.01 0.00 0.00 0.00 0.00 0.00 0.00 0.00 0.00 0.00 0.00 0.00 0.00 0.00 0.00 0.00 0.00 0.00 0.00 0.00 0.00 0.00 0.00 0.00 0.00 0.00 0.00 0.00 0.00 0.00 0.00 0.00 0.00 0.00 0.00 0.00
0.15 0.36 0.30 0.11 0.15 0.38 0.75 0.57 0.11 0.00 0.00 0.00 0.00 0.00 0.00 0.00 0.00 0.00 0.00 0.00 0.00 0.00 0.00 0.00 0.00 0.00 0.00 0.00 0.00 0.00 0.00 0.00 0.00 0.00 0.00 0.00 0.00 0.00 0.00 0.00 0.00 0.00 0.00 0.00 0.00
0.27 0.44 0.17 0.07 0.42 0.72 0.83 0.58 0.07 0.00 0.00 0.00 0.00 0.00 0.00 0.00 0.00 0.00 0.00 0.00 0.00 0.00 0.00 0.00 0.00 0.00 0.00 0.00 0.00 0.00 0.00 0.00 0.00 0.00 0.00 0.00 0.00 0.00 0.00 0.00 0.00 0.00 0.00 0.00 0.00
0.42 0.42 0.13 0.10 0.71 0.82 0.67 0.29 0.01 0.00 0.00 0.00 0.00 0.00 0.00 0.00 0.00 0.00 0.00 0.00 0.00 0.00 0.00 0.00 0.00 0.00 0.00 0.00 0.00 0.00 0.00 0.00 0.00 0.00 0.00 0.00 0.00 0.00 0.00 0.00 0.00 0.00 0.00 0.00 0.00
0.22 0.32 0.23 0.16 0.41 0.58 0.45 0.09 0.00 0.00 0.00 0.00 0.00 0.00 0.00 0.00 0.00 0.00 0.00 0.00 0.00 0.00 0.00 0.00 0.01 0.01 0.00 0.00 0.00 0.00 0.00 0.00 0.00 0.00 0.00 0.00 0.00 0.00 0.00 0.00 0.00 0.00 0.00 0.00 0.00
0.15 0.23 0.35 0.66 0.28 0.20 0.22 0.09 0.01 0.00 0.00 0.00 0.00 0.00 0.00 0.00 0.00 0.00 0.00 0.00 0.00 0.00 0.00 0.00 0.01 0.01 0.00 0.00 0.00 0.00 0.00 0.00 0.00 0.00 0.00 0.00 0.00 0.00 0.00 0.00 0.00 0.00 0.00 0.00 0.00
0.24 0.20 0.19 0.35 0.56 0.17 0.07 0.06 0.02 0.00 0.00 0.00 0.00 0.01 0.01 0.00 0.00 0.00 0.00 0.00 0.00 0.00 0.00 0.00 0.02 0.00 0.00 0.00 0.00 0.00 0.00 0.00 0.00 0.00 0.00 0.00 0.00 0.00 0.00 0.00 0.00 0.00 0.00 0.00 0.00
0.32 0.16 0.09 0.11 0.20 0.33 0.26 0.07 0.00 0.00 0.00 0.00 0.01 0.01 0.00 0.00 0.00 0.00 0.00 0.00 0.00 0.00 0.00 0.01 0.02 0.00 0.00 0.00 0.00 0.00 0.00 0.00 0.00 0.00 0.00 0.00 0.00 0.00 0.00 0.00 0.00 0.00 0.00 0.00 0.00
0.10 0.15 0.09 0.07 0.05 0.17 0.33 0.25 0.06 0.01 0.00 0.00 0.00 0.00 0.00 0.02 0.00 0.00 0.00 0.01 0.02 0.02 0.02 0.04 0.05 0.03 0.06 0.00 0.00 0.10 0.09 0.00 0.00 0.00 0.00 0.00 0.00 0.00 0.00 0.00 0.00 0.00 0.00 0.00 0.00
MSLP
1017.89 1017.98 1018.00 1018.09 1018.04 1017.99 1017.82 1017.68 1017.64 1017.49 1017.28 1016.96 1016.69 1016.40 1016.01 1015.62 1014.92 1014.94 1014.49 1014.81 1014.50 1014.38 1014.28 1013.62 1013.20 1012.88 1012.75 1012.87 1013.07 1013.03 1013.01 1012.36 1011.95 1011.97 1012.38 1012.74 1013.07 1013.45 1013.77 1014.12 1014.87 1016.01 1016.90 1017.84 1018.17
1018.18 1018.12 1018.18 1018.21 1018.25 1018.15 1018.08 1017.89 1017.75 1017.55 1017.24 1016.93 1016.64 1016.29 1015.91 1015.48 1015.02 1014.58 1014.80 1014.49 1014.38 1014.42 1014.21 1013.57 1013.06 1012.95 1012.79 1012.98 1013.10 1013.08 1012.97 1012.69 1012.30 1012.28 1012.60 1013.04 1013.21 1013.69 1014.15 1014.57 1015.66 1016.82 1017.66 1018.03 1018.21
1018.47 1018.43 1018.28 1018.32 1018.37 1018.24 1018.11 1018.02 1017.82 1017.49 1017.22 1016.92 1016.50 1016.11 1015.82 1015.59 1015.11 1014.82 1014.71 1014.53 1014.49 1014.48 1014.08 1013.73 1013.39 1013.12 1012.94 1013.20 1013.15 1013.12 1013.18 1013.05 1013.08 1013.22 1013.22 1013.39 1013.73 1013.82 1014.40 1015.06 1015.53 1016.43 1017.72 1018.34 1018.74
1018.54 1018.63 1018.46 1018.32 1018.36 1018.26 1018.11 1018.03 1017.79 1017.50 1017.22 1016.87 1016.46 1016.01 1015.60 1015.28 1015.31 1014.83 1014.73 1014.55 1014.58 1014.46 1014.07 1013.74 1013.52 1013.25 1013.18 1013.27 1013.45 1013.81 1013.44 1013.48 1013.68 1014.02 1014.00 1014.05 1014.04 1014.45 1014.93 1015.89 1016.40 1016.79 1017.63 1018.54 1019.31
1018.50 1018.64 1018.63 1018.44 1018.31 1018.26 1018.13 1018.03 1017.74 1017.46 1017.22 1016.80 1016.38 1016.01 1015.22 1015.08 1014.67 1014.63 1014.65 1014.58 1014.46 1014.30 1014.01 1013.85 1013.69 1013.43 1013.43 1013.39 1013.83 1013.88 1013.76 1014.02 1014.19 1014.53 1014.58 1014.62 1014.78 1014.95 1015.34 1016.08 1016.90 1017.58 1018.17 1019.04 1019.72
1018.29 1018.52 1018.66 1018.55 1018.41 1018.33 1018.18 1018.00 1017.70 1017.53 1017.08 1016.75 1016.36 1015.97 1015.71 1015.17 1014.50 1014.45 1014.50 1014.62 1014.38 1014.29 1014.15 1014.10 1013.97 1013.91 1013.88 1013.90 1014.27 1014.33 1014.28 1014.27 1014.40 1014.70 1014.92 1015.19 1015.16 1015.28 1015.41 1016.10 1017.24 1018.00 1018.64 1019.39 1019.99
1018.03 1018.24 1018.45 1018.56 1018.53 1018.37 1018.14 1017.95 1017.85 1017.48 1017.08 1016.70 1016.51 1016.03 1015.40 1014.74 1014.25 1014.48 1014.49 1014.58 1014.65 1014.50 1014.37 1014.45 1014.40 1014.34 1014.27 1014.31 1014.65 1014.72 1014.79 1014.51 1014.48 1014.83 1015.22 1015.50 1015.70 1015.12 1015.61 1016.24 1017.32 1018.10 1018.78 1019.59 1020.13
1017.85 1017.96 1018.15 1018.30 1018.41 1018.34 1018.08 1017.93 1017.82 1017.50 1017.08 1016.72 1016.53 1016.13 1015.21 1014.61 1014.40 1014.60 1014.55 1014.71 1014.75 1014.75 1014.72 1014.78 1014.69 1014.64 1014.75 1014.94 1014.98 1014.97 1014.96 1014.75 1014.22 1014.70 1015.79 1016.11 1015.45 1014.76 1015.27 1016.33 1017.27 1018.12 1018.84 1019.66 1020.17
1017.59 1017.82 1017.98 1018.15 1018.24 1018.30 1018.15 1017.89 1017.63 1017.37 1017.00 1016.67 1016.33 1015.93 1015.10 1014.82 1014.66 1014.37 1014.39 1014.49 1014.79 1015.00 1015.13 1015.07 1014.93 1015.00 1015.29 1015.31 1015.26 1014.96 1014.81 1014.65 1014.75 1014.89 1015.74 1016.35 1015.72 1015.54 1015.80 1016.40 1017.17 1017.83 1018.67 1019.37 1020.12
1017.21 1017.52 1017.80 1017.99 1018.08 1018.18 1018.09 1017.76 1017.24 1017.31 1016.75 1016.31 1016.09 1016.13 1014.85 1014.69 1014.72 1014.62 1014.75 1014.62 1014.81 1015.22 1015.37 1015.35 1015.33 1015.41 1015.44 1015.36 1014.99 1014.65 1014.88 1014.54 1014.52 1015.12 1015.50 1016.13 1015.83 1015.70 1015.80 1016.11 1016.62 1017.25 1018.07 1018.98 1019.77
1016.66 1017.16 1017.46 1017.82 1017.97 1018.06 1018.13 1017.70 1017.58 1017.20 1016.29 1014.84 1014.36 1013.99 1014.27 1014.94 1014.91 1014.90 1014.82 1014.87 1014.94 1015.35 1015.37 1015.44 1015.57 1015.04 1014.85 1014.81 1014.52 1014.45 1014.70 1014.72 1014.36 1014.92 1015.35 1015.44 1015.31 1014.97 1015.10 1015.57 1015.99 1016.52 1017.26 1018.34 1019.46
1016.07 1016.76 1017.05 1017.50 1017.92 1018.01 1018.10 1017.05 1016.54 1016.68 1015.57 1014.15 1013.80 1013.65 1013.86 1014.23 1014.70 1014.83 1014.87 1015.05 1015.05 1015.12 1015.31 1015.78 1015.06 1014.54 1014.53 1014.34 1014.57 1014.65 1014.93 1015.04 1014.80 1015.17 1015.49 1015.43 1015.00 1014.53 1014.29 1014.43 1014.62 1015.28 1016.15 1017.48 1019.13
1015.42 1016.25 1016.65 1017.13 1017.74 1018.01 1017.40 1016.43 1016.05 1016.09 1015.73 1013.17 1012.63 1012.65 1013.20 1013.95 1013.86 1014.26 1014.76 1014.54 1014.74 1014.97 1014.88 1014.69 1014.18 1013.78 1014.40 1014.59 1014.77 1014.89 1015.12 1015.29 1015.54 1015.71 1015.95 1015.96 1015.06 1014.17 1013.18 1012.99 1013.62 1014.31 1015.23 1016.45 1018.10
1014.82 1015.53 1016.17 1016.63 1017.94 1017.05 1016.66 1016.16 1016.08 1016.09 1015.52 1012.48 1011.96 1011.51 1012.41 1013.27 1013.61 1013.32 1013.80 1014.11 1014.52 1014.50 1014.72 1014.51 1014.20 1014.40 1014.38 1014.67 1015.05 1015.33 1015.00 1015.41 1015.93 1016.68 1016.71 1016.34 1015.11 1013.68 1012.73 1012.44 1012.81 1013.70 1014.88 1016.15 1017.74
1014.15 1014.79 1015.33 1015.33 1015.24 1015.73 1015.03 1015.38 1016.02 1016.39 1015.19 1011.27 1011.64 1012.31 1012.05 1012.76 1013.04 1013.97 1014.03 1014.21 1014.04 1014.11 1014.16 1013.86 1014.02 1014.46 1014.62 1014.44 1014.91 1015.49 1015.45 1015.97 1016.50 1017.10 1017.31 1017.11 1016.40 1012.89 1012.23 1012.25 1012.19 1013.26 1014.60 1015.92 1017.18
1013.41 1013.88 1014.68 1015.56 1015.24 1014.74 1015.10 1014.98 1016.48 1016.60 1012.77 1011.39 1012.03 1012.41 1012.86 1012.87 1013.59 1014.54 1014.61 1014.52 1014.19 1014.18 1014.09 1014.22 1014.45 1014.46 1014.56 1015.22 1015.32 1015.76 1016.43 1016.95 1017.47 1017.98 1017.67 1016.93 1016.28 1012.67 1011.94 1011.27 1011.59 1012.92 1014.24 1015.63 1017.07
1012.36 1013.09 1013.98 1014.42 1014.02 1014.87 1015.10 1015.12 1016.81 1015.07 1010.34 1010.48 1011.39 1011.97 1012.19 1012.69 1013.64 1014.25 1014.60 1014.42 1013.82 1014.40 1014.08 1014.44 1014.41 1014.58 1014.78 1015.55 1016.09 1016.10 1016.96 1017.84 1018.63 1018.84 1017.31 1016.04 1015.64 1012.43 1011.53 1011.29 1011.55 1012.57 1014.23 1015.62 1016.99
1011.67 1012.17 1012.73 1013.11 1013.96 1013.91 1014.72 1015.48 1015.05 1012.04 1010.49 1009.70 1010.24 1011.40 1011.94 1012.24 1013.13 1014.01 1014.29 1014.09 1013.75 1013.19 1012.98 1013.40 1013.61 1013.73 1014.18 1013.96 1014.97 1016.16 1016.48 1017.36 1017.85 1018.35 1017.67 1016.42 1014.52 1012.21 1011.87 1011.81 1012.10 1012.89 1014.24 1015.67 1017.04
1011.24 1011.53 1011.57 1012.14 1013.22 1014.04 1013.69 1013.03 1011.49 1008.93 1008.61 1009.60 1010.49 1010.68 1011.31 1011.97 1012.64 1013.44 1013.32 1012.46 1011.72 1012.07 1012.12 1011.95 1012.45 1012.53 1013.40 1013.74 1014.35 1015.95 1016.45 1016.15 1017.45 1018.37 1017.98 1015.53 1013.46 1011.97 1011.95 1012.52 1013.05 1013.58 1014.51 1015.71 1016.82
1010.63 1010.71 1010.19 1011.01 1012.29 1013.40 1012.28 1011.42 1009.30 1007.80 1007.53 1008.25 1008.54 1008.75 1009.57 1010.88 1012.36 1012.81 1012.23 1010.03 1010.52 1010.25 1010.85 1011.16 1012.02 1013.03 1014.28 1014.53 1014.47 1014.55 1015.13 1016.69 1017.54 1018.26 1016.89 1014.08 1012.47 1011.20 1011.82 1012.11 1013.09 1013.61 1014.06 1015.21 1016.46
1010.08 1009.46 1008.05 1010.03 1011.55 1010.54 1009.98 1010.41 1007.82 1008.17 1007.71 1007.76 1007.25 1007.04 1007.63 1009.16 1010.30 1010.83 1009.61 1008.68 1008.84 1009.20 1010.55 1011.23 1012.17 1014.35 1014.72 1014.25 1013.48 1014.88 1014.94 1015.37 1015.96 1016.42 1015.61 1013.72 1010.41 1008.52 1009.30 1010.23 1011.58 1012.83 1013.55 1014.49 1015.66
1009.44 1007.83 1007.35 1008.96 1009.39 1008.35 1007.79 1007.55 1007.93 1008.15 1007.85 1007.05 1006.40 1006.19 1006.17 1007.26 1008.54 1008.82 1008.28 1007.79 1007.57 1008.45 1009.75 1010.38 1011.57 1013.54 1013.59 1013.04 1012.97 1013.14 1013.68 1014.18 1014.78 1014.93 1013.99 1013.07 1007.85 1008.49 1008.86 1009.16 1010.47 1011.79 1012.96 1014.13 1015.17
1008.48 1007.71 1007.30 1007.15 1006.57 1006.74 1007.58 1007.24 1006.81 1007.51 1007.31 1006.76 1005.93 1005.56 1005.86 1006.14 1007.24 1006.93 1006.90 1007.15 1007.28 1007.91 1008.55 1009.68 1011.32 1013.03 1013.35 1013.81 1013.41 1012.96 1012.66 1012.79 1013.26 1013.38 1011.36 1013.04 1007.96 1009.05 1009.27 1009.46 1010.27 1011.45 1012.55 1013.46 1014.52
1007.89 1007.39 1006.91 1005.55 1005.16 1005.40 1006.60 1006.29 1006.74 1006.69 1007.06 1006.33 1005.63 1005.86 1005.70 1005.75 1005.75 1005.72 1006.30 1006.63 1006.89 1007.63 1008.46 1009.03 1009.87 1010.18 1009.96 1009.81 1010.81 1012.02 1011.90 1011.92 1012.46 1011.76 1011.29 1008.76 1008.84 1009.28 1009.48 1009.98 1010.51 1010.97 1011.71 1012.80 1013.76
1007.40 1005.89 1005.66 1005.30 1003.98 1004.26 1004.87 1004.77 1005.77 1005.71 1005.62 1005.91 1005.64 1005.27 1005.63 1006.03 1005.80 1004.81 1005.97 1007.01 1007.60 1007.89 1008.73 1009.31 1009.89 1010.24 1009.52 1009.59 1009.93 1010.31 1010.50 1010.68 1010.62 1009.49 1010.29 1006.18 1008.07 1008.01 1008.58 1009.21 1009.50 1010.09 1011.29 1012.24 1013.09
1007.88 1007.05 1006.59 1005.38 1005.15 1004.73 1004.01 1003.54 1004.07 1004.12 1004.38 1004.36 1004.66 1004.18 1004.84 1004.74 1003.52 1003.35 1005.27 1006.05 1007.03 1008.50 1009.15 1009.50 1009.72 1010.30 1009.55 1009.46 1009.66 1009.78 1009.48 1008.74 1009.39 1009.25 1008.81 1007.37 1005.36 1007.23 1006.84 1007.60 1008.89 1009.62 1010.58 1011.43 1012.06
1007.58 1007.17 1006.77 1005.33 1005.05 1005.24 1004.74 1004.53 1003.55 1004.03 1003.65 1003.82 1004.36 1004.78 1003.96 1002.88 1003.30 1004.33 1004.54 1005.32 1006.35 1007.60 1009.27 1010.17 1010.79 1010.79 1008.87 1009.34 1009.86 1009.65 1004.70 1008.22 1007.63 1007.37 1007.05 1006.72 1003.41 1006.71 1006.91 1007.29 1007.85 1008.54 1009.45 1010.35 1011.22
Thickness
5664 5666 5668 5671 5675 5679 5683 5687 5689 5693 5696 5702 5706 5711 5717 5723 5731 5734 5735 5735 5739 5741 5743 5748 5750 5751 5752 5743 5745 5745 5714 5712 5730 5730 5726 5734 5727 5736 5736 5727 5726 5720 5713 5709 5711
5656 5661 5664 5667 5669 5674 5677 5682 5686 5690 5695 5700 5705 5710 5716 5722 5728 5732 5732 5735 5737 5738 5740 5740 5740 5744 5737 5736 5736 5727 5714 5719 5735 5736 5730 5729 5730 5725 5724 5722 5714 5708 5708 5710 5710
5649 5652 5658 5661 5664 5669 5673 5677 5682 5687 5692 5698 5704 5710 5715 5719 5721 5723 5730 5732 5734 5735 5739 5739 5739 5737 5730 5732 5731 5730 5714 5728 5728 5728 5728 5726 5724 5732 5721 5714 5721 5712 5702 5704 5702
5643 5645 5651 5656 5659 5664 5669 5673 5679 5684 5689 5695 5701 5708 5714 5719 5702 5724 5727 5730 5730 5732 5733 5732 5730 5724 5721 5716 5725 5708 5724 5724 5723 5721 5721 5719 5726 5719 5718 5710 5713 5712 5706 5701 5695
5638 5641 5645 5650 5655 5658 5663 5668 5674 5680 5684 5691 5697 5703 5713 5710 5714 5722 5724 5726 5727 5729 5726 5724 5719 5721 5710 5720 5716 5710 5717 5718 5718 5714 5715 5716 5712 5713 5714 5709 5707 5704 5701 5694 5690
5634 5637 5639 5644 5648 5652 5657 5662 5668 5674 5680 5686 5692 5699 5702 5695 5715 5718 5720 5721 5723 5722 5721 5721 5717 5718 5712 5713 5706 5707 5710 5712 5713 5710 5709 5703 5707 5712 5713 5707 5699 5697 5693 5690 5686
5629 5632 5634 5638 5641 5646 5652 5657 5661 5668 5674 5680 5685 5691 5695 5699 5712 5713 5715 5715 5717 5717 5713 5716 5716 5710 5711 5706 5707 5704 5694 5701 5704 5704 5701 5702 5690 5700 5708 5704 5696 5693 5689 5685 5683
5623 5626 5629 5632 5635 5640 5646 5651 5655 5661 5668 5673 5678 5683 5686 5702 5706 5707 5709 5707 5711 5712 5711 5711 5712 5707 5701 5702 5698 5690 5693 5679 5700 5698 5690 5688 5682 5706 5705 5697 5692 5689 5684 5680 5679
5616 5620 5623 5625 5628 5632 5637 5643 5649 5654 5661 5667 5673 5676 5680 5695 5694 5702 5703 5700 5701 5702 5702 5704 5703 5694 5691 5681 5675 5683 5668 5677 5680 5692 5683 5674 5683 5694 5698 5692 5688 5685 5683 5679 5674
5608 5612 5615 5618 5622 5624 5629 5635 5642 5646 5654 5660 5666 5662 5678 5683 5686 5691 5693 5696 5691 5688 5687 5687 5683 5675 5675 5669 5654 5668 5667 5679 5679 5679 5680 5669 5670 5685 5687 5687 5687 5684 5682 5677 5673
5604 5604 5607 5609 5613 5617 5620 5628 5634 5636 5646 5661 5668 5675 5674 5674 5681 5679 5684 5681 5683 5678 5667 5674 5662 5661 5671 5675 5681 5676 5672 5668 5684 5674 5674 5670 5674 5685 5685 5684 5683 5685 5681 5676 5670
5599 5598 5600 5601 5602 5607 5611 5623 5629 5629 5635 5657 5661 5668 5672 5672 5664 5669 5675 5665 5666 5659 5665 5656 5653 5676 5680 5682 5673 5669 5662 5658 5674 5664 5665 5665 5667 5682 5688 5687 5691 5689 5685 5678 5665
5593 5591 5593 5593 5593 5599 5607 5617 5622 5623 5618 5653 5662 5662 5662 5662 5663 5661 5663 5664 5658 5654 5659 5655 5672 5682 5671 5668 5660 5660 5651 5654 5653 5654 5654 5648 5649 5671 5690 5698 5695 5694 5690 5680 5668
5583 5584 5585 5586 5586 5596 5602 5607 5608 5611 5599 5640 5651 5659 5657 5658 5649 5665 5666 5661 5654 5652 5653 5651 5668 5662 5662 5654 5653 5639 5659 5654 5651 5635 5619 5642 5617 5669 5688 5690 5694 5687 5679 5670 5664
5577 5576 5577 5587 5592 5593 5606 5599 5597 5595 5568 5643 5643 5647 5655 5651 5650 5643 5654 5651 5647 5649 5652 5649 5650 5643 5644 5654 5653 5642 5648 5644 5642 5627 5619 5627 5609 5659 5684 5683 5692 5678 5673 5666 5661
5570 5573 5570 5571 5578 5593 5589 5589 5578 5568 5583 5621 5621 5625 5627 5638 5633 5628 5634 5642 5646 5642 5644 5642 5643 5646 5647 5638 5642 5635 5631 5628 5623 5614 5588 5623 5624 5638 5677 5689 5691 5679 5670 5662 5653
5565 5565 5565 5567 5579 5574 5573 5570 5546 5550 5641 5627 5614 5616 5623 5625 5622 5623 5620 5621 5628 5616 5617 5630 5626 5634 5637 5623 5625 5628 5617 5593 5581 5574 5590 5629 5618 5651 5673 5684 5688 5676 5663 5654 5644
5556 5559 5561 5566 5563 5566 5558 5548 5527 5590 5612 5629 5618 5605 5605 5615 5613 5610 5610 5612 5622 5629 5629 5618 5613 5628 5631 5639 5620 5607 5614 5587 5585 5584 5595 5603 5607 5645 5661 5660 5666 5666 5657 5647 5636
5542 5547 5553 5560 5555 5551 5540 5530 5563 5612 5626 5614 5595 5594 5596 5601 5604 5600 5607 5622 5633 5630 5624 5627 5623 5636 5632 5632 5625 5604 5595 5624 5592 5555 5567 5605 5626 5653 5643 5646 5647 5647 5644 5636 5629
5531 5536 5550 5554 5548 5538 5541 5531 5584 5615 5617 5608 5598 5607 5594 5592 5582 5583 5596 5635 5631 5639 5636 5634 5617 5618 5608 5615 5615 5614 5616 5582 5579 5561 5566 5609 5622 5634 5631 5639 5632 5637 5639 5632 5623
5518 5526 5555 5548 5539 5544 5532 5529 5592 5592 5600 5590 5603 5610 5612 5594 5587 5582 5611 5631 5637 5636 5626 5624 5611 5584 5591 5595 5611 5594 5591 5599 5597 5582 5574 5582 5622 5665 5652 5647 5637 5634 5634 5627 5618
5507 5527 5543 5539 5537 5544 5549 5570 5575 5571 5584 5592 5601 5609 5610 5604 5583 5589 5600 5622 5635 5631 5614 5618 5604 5569 5585 5601 5608 5608 5596 5598 5580 5581 5593 5580 5642 5654 5652 5647 5639 5632 5627 5619 5610
5496 5511 5526 5532 5537 5543 5546 5558 5567 5563 5567 5582 5589 5606 5608 5599 5587 5597 5606 5619 5622 5620 5614 5607 5579 5570 5579 5576 5580 5589 5600 5603 5602 5583 5603 5572 5632 5627 5631 5636 5630 5622 5615 5611 5601
5488 5501 5512 5530 5541 5547 5538 5547 5547 5560 5556 5572 5586 5584 5588 5588 5599 5598 5598 5606 5609 5609 5605 5600 5582 5591 5598 5614 5600 5577 5585 5592 5587 5580 5584 5611 5624 5614 5617 5614 5615 5614 5611 5602 5596
5473 5497 5508 5522 5539 5542 5549 5559 5546 5549 5560 5564 5563 5573 5573 5566 5578 5595 5589 5579 5581 5587 5585 5580 5566 5578 5600 5607 5596 5583 5581 5583 5579 5598 5578 5632 5608 5624 5615 5608 5613 5610 5600 5596 5589
5449 5465 5478 5500 5508 5521 5540 5549 5551 5559 5558 5558 5558 5579 5572 5569 5594 5601 5589 5579 5572 5567 5566 5563 5565 5570 5574 5587 5577 5575 5588 5585 5576 5582 5588 5608 5620 5621 5625 5617 5602 5603 5596 5589 5582
5432 5444 5460 5486 5504 5506 5499 5521 5543 5554 5554 5560 5558 5557 5559 5584 5594 5587 5584 5581 5574 5562 5547 5539 5543 5540 5566 5570 5556 5548 5609 5586 5588 5587 5594 5586 5636 5606 5608 5603 5600 5597 5592 5585 5578